Pecos, TX

10:56 PM CDT on September 20, 2017 (GMT -0500)
Pecos Municipal

Weather History for KPEQ - January, 2014

Change the Weather History Date:

Monday, January 13, 2014

  Actual Average Record
Temperature  
Mean Temperature 49 °F -  
Max Temperature 66 °F 59 °F 84 °F (1957)
Min Temperature 32 °F 28 °F 5 °F (1962)
Degree Days  
Heating Degree Days 16    
Moisture  
Dew Point 12 °F    
Average Humidity 24    
Maximum Humidity 45    
Minimum Humidity 11    
Precipitation  
Precipitation 0.00 in - - ()
Sea Level Pressure  
Sea Level Pressure 30.16 in    
Wind  
Wind Speed 9 mph (West)    
Max Wind Speed 18 mph    
Max Gust Speed 24 mph    
Visibility 10 miles    
Events      
Averages and records for this station are not official NWS values.
T = Trace of Precipitation, MM = Missing Value Source: NWS Daily Summary

Daily Weather History Graph

Daily Weather History Graph

Search for Another Location

Airport or City:

Trip Planner

Search our weather history database for the weather conditions in past years. The results will help you decide how hot, cold, wet, or windy it might be!

Date:

Astronomy

Jan. 13, 2014 Rise Set
Actual Time 7:53 AM CST 6:12 PM CST
Civil Twilight 7:27 AM CST 6:38 PM CST
Nautical Twilight 6:57 AM CST 7:08 PM CST
Astronomical Twilight 6:28 AM CST 7:37 PM CST
Moon 4:27 PM CST (1/13) 5:45 AM CST (1/13)
Length of Visible Light 11h 10m
Length of Day
10h 18m
Waxing Gibbous, 95% of the Moon is Illuminated
Jan 13
Waxing Gibbous
Jan 15
Full
Jan 23
Last Quarter
Jan 30
New
Feb 6
First Quarter

Hourly Weather History & Observations

Time (CST) Temp. Windchill Dew Point Humidity Pressure Visibility Wind Dir Wind Speed Gust Speed Precip Events Conditions
12:15 AM 52.5 °F - 19.9 °F 28% 29.98 in 10.0 mi West 15.0 mph - N/A   Clear
12:35 AM 53.4 °F - 19.8 °F 27% 30.02 in 10.0 mi NW 9.2 mph 23.0 mph N/A   Clear
12:55 AM 53.8 °F - 19.9 °F 27% 30.03 in 10.0 mi NNW 11.5 mph - N/A   Clear
1:15 AM 50.7 °F - 19.8 °F 30% 30.04 in 10.0 mi NNW 8.1 mph - N/A   Clear
1:35 AM 48.2 °F - 19.4 °F 32% 30.05 in 10.0 mi NNW 9.2 mph - N/A   Clear
1:55 AM 46.6 °F - 19.4 °F 34% 30.06 in 10.0 mi WNW 5.8 mph - N/A   Clear
2:15 AM 48.0 °F - 19.6 °F 32% 30.07 in 10.0 mi NNW 8.1 mph - N/A   Clear
2:35 AM 47.7 °F - 19.4 °F 33% 30.07 in 10.0 mi NNW 8.1 mph - N/A   Clear
2:55 AM 48.2 °F - 19.2 °F 32% 30.09 in 10.0 mi NNW 13.8 mph - N/A   Clear
3:15 AM 49.6 °F - 18.5 °F 29% 30.10 in 10.0 mi NNW 11.5 mph 19.6 mph N/A   Clear
3:35 AM 49.5 °F - 18.0 °F 29% 30.11 in 10.0 mi NNW 13.8 mph - N/A   Clear
3:55 AM 49.5 °F - 16.7 °F 27% 30.12 in 10.0 mi North 17.3 mph 23.0 mph N/A   Clear
4:15 AM 49.5 °F - 15.3 °F 26% 30.13 in 10.0 mi North 16.1 mph 20.7 mph N/A   Clear
4:35 AM 49.3 °F - 13.6 °F 24% 30.14 in 10.0 mi North 17.3 mph 23.0 mph N/A   Clear
4:55 AM 49.1 °F - 12.4 °F 23% 30.15 in 10.0 mi North 18.4 mph 24.2 mph N/A   Clear
5:15 AM 47.7 °F - 10.6 °F 22% 30.17 in 10.0 mi North 12.7 mph - N/A   Clear
5:35 AM 45.7 °F 41.5 °F 10.0 °F 24% 30.18 in 10.0 mi NNE 8.1 mph - N/A   Clear
5:55 AM 43.7 °F 41.1 °F 9.7 °F 25% 30.18 in 10.0 mi North 4.6 mph - N/A   Clear
6:15 AM 41.2 °F 39.2 °F 9.5 °F 27% 30.19 in 10.0 mi NW 3.5 mph - N/A   Clear
6:35 AM 38.5 °F 34.1 °F 10.2 °F 31% 30.20 in 10.0 mi NW 5.8 mph - N/A   Clear
6:55 AM 36.3 °F 29.5 °F 10.4 °F 34% 30.22 in 10.0 mi WSW 9.2 mph - N/A   Clear
7:15 AM 34.9 °F 27.7 °F 10.9 °F 37% 30.23 in 10.0 mi West 9.2 mph - N/A   Clear
7:35 AM 35.6 °F 28.6 °F 11.5 °F 37% 30.22 in 10.0 mi WSW 9.2 mph - N/A   Clear
7:55 AM 34.0 °F 28.8 °F 11.7 °F 40% 30.23 in 10.0 mi WSW 5.8 mph - N/A   Clear
8:15 AM 32.2 °F 25.8 °F 12.6 °F 44% 30.24 in 10.0 mi SW 6.9 mph - N/A   Clear
8:35 AM 33.3 °F 28.9 °F 13.8 °F 45% 30.26 in 10.0 mi WSW 4.6 mph - N/A   Clear
8:55 AM 35.8 °F 33.0 °F 14.5 °F 42% 30.27 in 7.0 mi SSW 3.5 mph - N/A   Clear
9:15 AM 39.4 °F - 15.1 °F 37% 30.28 in 7.0 mi Calm Calm - N/A   Clear
9:35 AM 43.9 °F 41.3 °F 15.6 °F 32% 30.29 in 10.0 mi SW 4.6 mph - N/A   Clear
9:55 AM 47.5 °F - 14.9 °F 27% 30.30 in 10.0 mi SW 5.8 mph - N/A   Clear
10:15 AM 48.7 °F - 14.7 °F 26% 30.30 in 10.0 mi WSW 6.9 mph - N/A   Clear
10:35 AM 50.0 °F - 10.6 °F 21% 30.30 in 10.0 mi West 6.9 mph - N/A   Clear
10:55 AM 50.2 °F - 10.4 °F 20% 30.29 in 10.0 mi West 4.6 mph - N/A   Clear
11:15 AM 51.3 °F - 10.4 °F 19% 30.29 in 10.0 mi WSW 5.8 mph - N/A   Clear
11:35 AM 52.7 °F - 10.9 °F 19% 30.28 in 10.0 mi WSW 5.8 mph - N/A   Clear
11:55 AM 54.0 °F - 11.1 °F 18% 30.27 in 10.0 mi West 4.6 mph - N/A   Clear
12:15 PM 54.7 °F - 10.6 °F 17% 30.26 in 10.0 mi West 4.6 mph - N/A   Clear
12:35 PM 56.1 °F - 11.5 °F 17% 30.25 in 10.0 mi NW 5.8 mph - N/A   Clear
12:55 PM 56.7 °F - 11.7 °F 17% 30.24 in 10.0 mi WNW 5.8 mph - N/A   Clear
1:15 PM 57.4 °F - 12.4 °F 17% 30.22 in 10.0 mi Calm Calm - N/A   Clear
1:35 PM 58.5 °F - 12.2 °F 16% 30.20 in 10.0 mi NW 5.8 mph - N/A   Clear
1:55 PM 59.9 °F - 12.2 °F 15% 30.18 in 10.0 mi Calm Calm - N/A   Clear
2:15 PM 60.4 °F - 12.0 °F 15% 30.17 in 10.0 mi NW 3.5 mph - N/A   Clear
2:35 PM 60.8 °F - 12.0 °F 15% 30.16 in 10.0 mi North 3.5 mph - N/A   Clear
2:55 PM 62.6 °F - 12.7 °F 14% 30.15 in 10.0 mi South 3.5 mph - N/A   Clear
3:15 PM 63.5 °F - 13.5 °F 14% 30.15 in 10.0 mi SE 4.6 mph - N/A   Clear
3:35 PM 63.7 °F - 13.1 °F 14% 30.13 in 10.0 mi South 3.5 mph - N/A   Clear
3:55 PM 65.5 °F - 9.7 °F 11% 30.13 in 10.0 mi WSW 8.1 mph - N/A   Clear
4:15 PM 65.5 °F - 10.4 °F 12% 30.12 in 10.0 mi WNW 11.5 mph 17.3 mph N/A   Clear
4:35 PM 66.0 °F - 11.3 °F 12% 30.12 in 10.0 mi WSW 16.1 mph - N/A   Clear
4:55 PM 65.7 °F - 10.9 °F 12% 30.12 in 10.0 mi West 17.3 mph 20.7 mph N/A   Clear
5:15 PM 64.9 °F - 10.4 °F 12% 30.12 in 10.0 mi West 12.7 mph - N/A   Clear
5:35 PM 63.9 °F - 10.4 °F 12% 30.11 in 10.0 mi West 11.5 mph - N/A   Clear
5:55 PM 62.1 °F - 10.0 °F 13% 30.10 in 10.0 mi WSW 9.2 mph - N/A   Clear
6:15 PM 58.6 °F - 9.3 °F 14% 30.10 in 10.0 mi West 10.4 mph - N/A   Clear
6:35 PM 55.8 °F - 8.6 °F 15% 30.11 in 10.0 mi WSW 9.2 mph - N/A   Clear
6:55 PM 52.3 °F - 8.1 °F 17% 30.11 in 10.0 mi WSW 9.2 mph - N/A   Clear
7:15 PM 52.0 °F - 9.1 °F 18% 30.12 in 10.0 mi SW 10.4 mph - N/A   Clear
7:35 PM 50.5 °F - 8.8 °F 19% 30.12 in 10.0 mi SSW 8.1 mph - N/A   Clear
7:55 PM 48.2 °F - 10.2 °F 22% 30.13 in 10.0 mi SW 8.1 mph - N/A   Clear
8:15 PM 46.4 °F 41.1 °F 9.5 °F 22% 30.13 in 10.0 mi SSW 11.5 mph 16.1 mph N/A   Clear
8:35 PM 47.3 °F - 9.5 °F 22% 30.13 in 10.0 mi SSW 10.4 mph - N/A   Clear
8:55 PM 45.5 °F 40.8 °F 10.2 °F 24% 30.13 in 10.0 mi SW 9.2 mph - N/A   Clear
9:15 PM 46.8 °F - 9.3 °F 22% 30.13 in 10.0 mi SW 9.2 mph - N/A   Clear
9:35 PM 43.0 °F 37.7 °F 10.0 °F 26% 30.14 in 10.0 mi SW 9.2 mph - N/A   Clear
9:55 PM 42.4 °F 36.5 °F 10.2 °F 27% 30.14 in 10.0 mi WSW 10.4 mph - N/A   Clear
10:15 PM 43.7 °F 38.6 °F 9.5 °F 25% 30.13 in 10.0 mi WSW 9.2 mph - N/A   Clear
10:35 PM 44.1 °F 39.0 °F 9.3 °F 24% 30.14 in 10.0 mi WSW 9.2 mph - N/A   Clear
10:55 PM 41.9 °F 36.9 °F 9.3 °F 26% 30.15 in 10.0 mi WSW 8.1 mph - N/A   Clear
11:15 PM 41.4 °F 34.7 °F 9.5 °F 27% 30.15 in 10.0 mi West 11.5 mph - N/A   Clear
11:35 PM 45.9 °F 39.7 °F 9.5 °F 23% 30.15 in 10.0 mi West 13.8 mph - N/A   Clear
11:55 PM 45.5 °F 39.6 °F 9.3 °F 23% 30.14 in 10.0 mi West 12.7 mph - N/A   Clear